[keps] orb07025.amsat
Ray Hoad
r.hoad at att.net
Thu Jan 25 21:03:28 PST 2007
SB KEPS @ AMSAT $ORB07025.O
Orbital Elements 07025.OSCAR
HR AMSAT ORBITAL ELEMENTS FOR OSCAR SATELLITES
FROM WA5QGD FORT WORTH,TX January 25, 2007
Send SUBSCRIBE KEPS/UNSUBSCRIBE KEPS to majordomo at amsat.org only
BID: ORB07025.O
TO ALL RADIO AMATEURS BT
Satellite: AO-07
Catalog number: 07530
Epoch time: 07025.68698549
Element set: 789
Inclination: 101.5376 deg
RA of node: 067.7810 deg
Eccentricity: 0.0012100
Arg of perigee: 173.2506 deg
Mean anomaly: 186.8734 deg
Mean motion: 12.53572457 rev/day
Decay rate: -2.8e-07 rev/day^2
Epoch rev: 47326
Checksum: 317
Satellite: AO-10
Catalog number: 14129
Epoch time: 07023.80110248
Element set: 352
Inclination: 026.9929 deg
RA of node: 295.0459 deg
Eccentricity: 0.6050984
Arg of perigee: 352.2168 deg
Mean anomaly: 001.6023 deg
Mean motion: 02.05869632 rev/day
Decay rate: -1.92e-06 rev/day^2
Epoch rev: 17759
Checksum: 299
Satellite: UO-11
Catalog number: 14781
Epoch time: 07025.55996146
Element set: 284
Inclination: 098.2003 deg
RA of node: 045.4280 deg
Eccentricity: 0.0008164
Arg of perigee: 272.3235 deg
Mean anomaly: 087.7119 deg
Mean motion: 14.79516368 rev/day
Decay rate: 3.74e-06 rev/day^2
Epoch rev: 22864
Checksum: 313
Satellite: RS-10/11
Catalog number: 18129
Epoch time: 07024.90376310
Element set: 0204
Inclination: 082.9263 deg
RA of node: 164.1616 deg
Eccentricity: 0.0011026
Arg of perigee: 190.8743 deg
Mean anomaly: 169.2173 deg
Mean motion: 13.72783313 rev/day
Decay rate: 9.0e-08 rev/day^2
Epoch rev: 98157
Checksum: 287
Satellite: RS-15
Catalog number: 23439
Epoch time: 07024.92286229
Element set: 0025
Inclination: 064.8162 deg
RA of node: 238.6108 deg
Eccentricity: 0.0163268
Arg of perigee: 215.9279 deg
Mean anomaly: 143.0579 deg
Mean motion: 11.27551534 rev/day
Decay rate: -3.9e-07 rev/day^2
Epoch rev: 49754
Checksum: 319
Satellite: FO-29
Catalog number: 24278
Epoch time: 07024.95750962
Element set: 0434
Inclination: 098.5307 deg
RA of node: 003.9738 deg
Eccentricity: 0.0351399
Arg of perigee: 094.5295 deg
Mean anomaly: 269.6061 deg
Mean motion: 13.52927285 rev/day
Decay rate: 5.0e-08 rev/day^2
Epoch rev: 51553
Checksum: 337
Satellite: SO-33
Catalog number: 25509
Epoch time: 07025.80493561
Element set: 848
Inclination: 031.4345 deg
RA of node: 310.7469 deg
Eccentricity: 0.0355824
Arg of perigee: 262.5707 deg
Mean anomaly: 093.4398 deg
Mean motion: 14.28144373 rev/day
Decay rate: 3.13e-06 rev/day^2
Epoch rev: 43088
Checksum: 316
Satellite: AO-40
Catalog number: 26609
Epoch time: 07023.43735867
Element set: 832
Inclination: 004.8694 deg
RA of node: 182.1565 deg
Eccentricity: 0.7998693
Arg of perigee: 262.5057 deg
Mean anomaly: 011.0946 deg
Mean motion: 01.25586286 rev/day
Decay rate: -7.7e-07 rev/day^2
Epoch rev: 2862
Checksum: 340
Satellite: VO-52
Catalog number: 28650
Epoch time: 07025.71386530
Element set: 538
Inclination: 097.8474 deg
RA of node: 099.5231 deg
Eccentricity: 0.0027474
Arg of perigee: 359.8414 deg
Mean anomaly: 000.2836 deg
Mean motion: 14.81257017 rev/day
Decay rate: 3.74e-06 rev/day^2
Epoch rev: 9332
Checksum: 313
/EX
SB KEPS @ AMSAT $ORB07025.D
Orbital Elements 07025.MICROS
HR AMSAT ORBITAL ELEMENTS FOR THE MICROSATS
FROM WA5QGD FORT WORTH,TX January 25, 2007
Send SUBSCRIBE KEPS/UNSUBSCRIBE KEPS to majordomo at amsat.org only
BID: ORB07025.D
TO ALL RADIO AMATEURS BT
Satellite: AO-16
Catalog number: 20439
Epoch time: 07024.54735194
Element set: 950
Inclination: 098.1898 deg
RA of node: 027.0625 deg
Eccentricity: 0.0010004
Arg of perigee: 255.5492 deg
Mean anomaly: 104.4580 deg
Mean motion: 14.31748025 rev/day
Decay rate: -9.0e-08 rev/day^2
Epoch rev: 88799
Checksum: 312
Satellite: LO-19
Catalog number: 20442
Epoch time: 07025.58816001
Element set: 880
Inclination: 098.1821 deg
RA of node: 037.5386 deg
Eccentricity: 0.0010974
Arg of perigee: 251.6062 deg
Mean anomaly: 108.3930 deg
Mean motion: 14.31989515 rev/day
Decay rate: -3.5e-07 rev/day^2
Epoch rev: 88828
Checksum: 309
Satellite: AO-27
Catalog number: 22825
Epoch time: 07025.44924691
Element set: 601
Inclination: 098.3124 deg
RA of node: 001.6942 deg
Eccentricity: 0.0008246
Arg of perigee: 330.7837 deg
Mean anomaly: 029.2892 deg
Mean motion: 14.29197297 rev/day
Decay rate: -2.0e-07 rev/day^2
Epoch rev: 69510
Checksum: 306
Satellite: IO-26
Catalog number: 22826
Epoch time: 07024.47112176
Element set: 0295
Inclination: 098.3046 deg
RA of node: 001.8906 deg
Eccentricity: 0.0008830
Arg of perigee: 330.8105 deg
Mean anomaly: 029.2587 deg
Mean motion: 14.29442778 rev/day
Decay rate: -1.0e-08 rev/day^2
Epoch rev: 69504
Checksum: 298
Satellite: PO-28
Catalog number: 22829
Epoch time: 07024.84711427
Element set: 576
Inclination: 098.2950 deg
RA of node: 003.4349 deg
Eccentricity: 0.0009078
Arg of perigee: 301.5312 deg
Mean anomaly: 058.4977 deg
Mean motion: 14.30140637 rev/day
Decay rate: -3.6e-07 rev/day^2
Epoch rev: 69532
Checksum: 308
Satellite: GO-32
Catalog number: 25397
Epoch time: 07024.66140165
Element set: 0215
Inclination: 098.4364 deg
RA of node: 078.0057 deg
Eccentricity: 0.0000687
Arg of perigee: 328.2300 deg
Mean anomaly: 031.8837 deg
Mean motion: 14.23119673 rev/day
Decay rate: 3.8e-07 rev/day^2
Epoch rev: 44374
Checksum: 292
Satellite: MO-46
Catalog number: 26548
Epoch time: 07025.16700400
Element set: 706
Inclination: 064.5561 deg
RA of node: 265.1070 deg
Eccentricity: 0.0031750
Arg of perigee: 216.0301 deg
Mean anomaly: 143.8642 deg
Mean motion: 14.83090098 rev/day
Decay rate: 4.8e-07 rev/day^2
Epoch rev: 34232
Checksum: 264
Satellite: NO-44
Catalog number: 26931
Epoch time: 07025.77667878
Element set: 506
Inclination: 067.0525 deg
RA of node: 154.3272 deg
Eccentricity: 0.0005354
Arg of perigee: 276.2321 deg
Mean anomaly: 083.8152 deg
Mean motion: 14.29471776 rev/day
Decay rate: 2.28e-06 rev/day^2
Epoch rev: 27774
Checksum: 323
Satellite: SO-50
Catalog number: 27607
Epoch time: 07025.78731081
Element set: 227
Inclination: 064.5574 deg
RA of node: 157.3576 deg
Eccentricity: 0.0038504
Arg of perigee: 048.8793 deg
Mean anomaly: 311.5601 deg
Mean motion: 14.71221609 rev/day
Decay rate: -2.5e-07 rev/day^2
Epoch rev: 22017
Checksum: 292
Satellite: CO-55
Catalog number: 27844
Epoch time: 07025.53921109
Element set: 946
Inclination: 098.7205 deg
RA of node: 035.7796 deg
Eccentricity: 0.0010175
Arg of perigee: 139.1051 deg
Mean anomaly: 221.0885 deg
Mean motion: 14.20487815 rev/day
Decay rate: 6.9e-07 rev/day^2
Epoch rev: 18522
Checksum: 310
Satellite: CO-57
Catalog number: 27848
Epoch time: 07024.55549200
Element set: 909
Inclination: 098.7186 deg
RA of node: 034.0585 deg
Eccentricity: 0.0010119
Arg of perigee: 145.6831 deg
Mean anomaly: 214.5000 deg
Mean motion: 14.20310006 rev/day
Decay rate: 4.9e-07 rev/day^2
Epoch rev: 18506
Checksum: 279
Satellite: AO-51
Catalog number: 28375
Epoch time: 07024.65118240
Element set: 731
Inclination: 098.1342 deg
RA of node: 071.2189 deg
Eccentricity: 0.0083266
Arg of perigee: 257.8025 deg
Mean anomaly: 101.3833 deg
Mean motion: 14.40552810 rev/day
Decay rate: 1.9e-07 rev/day^2
Epoch rev: 13504
Checksum: 274
Satellite: CO-56
Catalog number: 28941
Epoch time: 07024.63282881
Element set: 0338
Inclination: 098.1518 deg
RA of node: 070.2601 deg
Eccentricity: 0.0248693
Arg of perigee: 059.3329 deg
Mean anomaly: 303.2128 deg
Mean motion: 15.33759791 rev/day
Decay rate: 1.5674e-04 rev/day^2
Epoch rev: 05138
Checksum: 328
Satellite: HO-59
Catalog number: 29484
Epoch time: 07024.58148795
Element set: 0169
Inclination: 098.3102 deg
RA of node: 053.6649 deg
Eccentricity: 0.0249147
Arg of perigee: 056.8915 deg
Mean anomaly: 305.5923 deg
Mean motion: 15.39906625 rev/day
Decay rate: 3.2342e-04 rev/day^2
Epoch rev: 01889
Checksum: 355
Satellite: NO-60
Catalog number: 29661
Epoch time: 07024.72081300
Element set: 0050
Inclination: 051.6486 deg
RA of node: 123.3987 deg
Eccentricity: 0.0012565
Arg of perigee: 147.2120 deg
Mean anomaly: 212.9663 deg
Mean motion: 15.85822290 rev/day
Decay rate: 4.2318e-04 rev/day^2
Epoch rev: 00550
Checksum: 275
Satellite: NO-61
Catalog number: 29667
Epoch time: 07024.69191972
Element set: 0052
Inclination: 051.6373 deg
RA of node: 123.9362 deg
Eccentricity: 0.0017010
Arg of perigee: 142.8535 deg
Mean anomaly: 217.3648 deg
Mean motion: 15.83097234 rev/day
Decay rate: 1.2249e-04 rev/day^2
Epoch rev: 00523
Checksum: 298
/EX
SB KEPS @ AMSAT $ORB07025.W
Orbital Elements 07025.WEATHER
HR AMSAT ORBITAL ELEMENTS FOR WEATHER SATELLITES
FROM WA5QGD FORT WORTH,TX January 25, 2007
Send SUBSCRIBE KEPS/UNSUBSCRIBE KEPS to majordomo at amsat.org only
BID: ORB07025.W
TO ALL RADIO AMATEURS BT
Satellite: NOAA-10
Catalog number: 16969
Epoch time: 07024.59598131
Element set: 0515
Inclination: 098.7536 deg
RA of node: 041.6316 deg
Eccentricity: 0.0011841
Arg of perigee: 223.7966 deg
Mean anomaly: 136.2277 deg
Mean motion: 14.27314970 rev/day
Decay rate: -1.71e-06 rev/day^2
Epoch rev: 05874
Checksum: 316
Satellite: NOAA-11
Catalog number: 19531
Epoch time: 07024.78438876
Element set: 493
Inclination: 098.8171 deg
RA of node: 115.7242 deg
Eccentricity: 0.0012422
Arg of perigee: 079.7103 deg
Mean anomaly: 280.5451 deg
Mean motion: 14.14834003 rev/day
Decay rate: 1.41e-06 rev/day^2
Epoch rev: 94587
Checksum: 297
Satellite: NOAA-12
Catalog number: 21263
Epoch time: 07024.83628113
Element set: 987
Inclination: 098.7457 deg
RA of node: 022.3603 deg
Eccentricity: 0.0013150
Arg of perigee: 160.6500 deg
Mean anomaly: 199.5153 deg
Mean motion: 14.25519767 rev/day
Decay rate: -2.00e-06 rev/day^2
Epoch rev: 81582
Checksum: 287
Satellite: MET-3/5
Catalog number: 21655
Epoch time: 07024.89371027
Element set: 0231
Inclination: 082.5555 deg
RA of node: 104.1918 deg
Eccentricity: 0.0012598
Arg of perigee: 203.4303 deg
Mean anomaly: 156.6246 deg
Mean motion: 13.17009346 rev/day
Decay rate: 5.1e-07 rev/day^2
Epoch rev: 74254
Checksum: 280
